Content
SEND FEEDBACK

Daily
Averages
Monthly
Summary
Greenland

THULE, GREENLAND


Home > North America > Greenland
Elevation: 59 meters     Latitude: 76 32N     Longitude: 068 30W

WEATHER
 
SELECT A DAY
Number of Records: 221,071;   Date Range: 6/30/96 - 12/25/14
 
SHARE

PRINT THIS DATA

[ ← Previous Day ]
WEATHER ALMANAC - 23 JANUARY, 2013
[ Next Day → ]
[ °F ]   °C
Weather ElementAverageHighLow
Temperature-16.8 °C-14.2 °C (9:58 am)-19.2 °C (11:58 pm)
Dewpoint-21.4 °C-19.7 °C (4:58 pm)-23 °C (8:58 pm)
Humidity68 %74 % (11:58 pm)63 % (9:58 am)
Barometer1004.7 hPa1005.8 hPa (3:58 pm)1004.1 hPa (1:58 am)
Wind Speed14.2 km/h29.6 km/h (7:58 am)
Weather ElementAverage
Visibility10 km
Wind DirectionESE (101.7 °)

Weather ElementTotal
Precipitation---
Heating Degree Days35.1 (Base 18.3)
Averaged from 23 records on 23 January, 2013
WEATHER CONDITIONS BREAKOUT
WIND DIRECTION BREAKOUT
WEATHER BY HOUR - 23 JANUARY, 2013
[ °F ]   °C
Local TimeTemperatureDewpointHumidityBarometerVisibilityWind DirectionWind SpeedGust SpeedPrecipitationEventsConditions
1:58 AM-17.2 °C-21.3 °C71 %1004.1 hPa10 kmEast (90°)24.1 km/hClear
2:58 AM-16 °C-20.7 °C68 %1004.1 hPa10 kmENE (70°)5.6 km/hClear
3:58 AM-17.6 °C-21.8 °C70 %1004.1 hPa10 kmEast (90°)18.5 km/hClear
4:58 AM-18.1 °C-22.8 °C67 %1004.4 hPa10 kmEast (90°)16.7 km/hClear
5:58 AM-15.5 °C-20.4 °C67 %1004.7 hPa10 kmEast (100°)16.7 km/hClear
6:58 AM-15 °C-20.2 °C65 %1004.7 hPa10 kmEast (100°)27.8 km/hClear
7:58 AM-15.8 °C-20.7 °C67 %1004.7 hPa10 kmEast (90°)29.6 km/hClear
8:58 AM-16 °C-21.3 °C65 %1005.1 hPa10 kmEast (100°)20.4 km/hClear
9:58 AM-14.2 °C-19.9 °C63 %1005.1 hPa10 kmEast (90°)13 km/hClear
10:58 AM-15.5 °C-20.5 °C66 %1005.1 hPa10 kmESE (110°)11.1 km/hClear
11:58 AM-16.6 °C-21.8 °C65 %1005.1 hPa10 kmEast (90°)16.7 km/hClear
12:58 PM-15.9 °C-20.8 °C67 %1005.1 hPa10 kmEast (100°)18.5 km/hClear
1:58 PM-18 °C-22.6 °C68 %1005.1 hPa10 kmENE (70°)11.1 km/hClear
2:58 PM-17.7 °C-22.3 °C68 %1005.1 hPa10 kmEast (90°)16.7 km/hClear
3:58 PM-17.6 °C-22.2 °C68 %1005.8 hPa10 kmEast (90°)16.7 km/hClear
4:58 PM-15.1 °C-19.7 °C69 %1005.4 hPa10 kmESE (110°)16.7 km/hClear
5:58 PM-16.5 °C-21.2 °C68 %1005.4 hPa10 kmSE (130°)11.1 km/hClear
6:58 PM-15.3 °C-20.4 °C66 %1005.4 hPa10 kmEast (80°)11.1 km/hClear
7:58 PM-17.4 °C-21.6 °C71 %1005.1 hPa10 kmCalm (360°)Clear
8:58 PM-18.6 °C-23 °C69 %1005.1 hPa10 kmESE (110°)9.3 km/hClear
9:58 PM-17.7 °C-21.9 °C70 %1004.7 hPa10 kmNNE (30°)1.9 km/hClear
10:58 PM-18.9 °C-23 °C71 %1004.4 hPa10 kmEast (80°)5.6 km/hClear
11:58 PM-19.2 °C-22.8 °C74 %1004.7 hPa10 kmENE (70°)7.4 km/hClear
Hourly data recorded from BGTL, located 0 kilometers away from Thule, Greenland







STORIES FROM OUR PARTNERS